Location: ????
(30.2663°N, 31.2484°E)
Time: 07:44:12
(UTC+00:00)

ASTRO E2 - Pass Details

Date: 27 September 2022
Orbit: 493 x 499 km, 31.4° (Epoch: 28 November)

Event Time Altitude Azimuth Distance (km) Brightness Sun altitude
Exits shadow 01:45:48 40° 89° (E) 747 3.9 -26.5°
Drops below altitude 10° 01:48:24 10° 81° (E) 1,697 6.3 -26.0°
Sets 01:50:37 0° 80° (E) 2,583 7.6 -25.5°
